Regional Weather Roundup
Issued by NWS Binghamton, NY

Home | Current Version | Previous Version | Text Only | Print | Product List | Glossary On
Versions: 1 2 3 4 5 6 7 8 9 10 11 12 13 14 15 16 17 18 19 20 21 22 23 24 25 26 27 28 29 30 31 32 33 34 35 36 37 38 39 40 41 42 43 44 45 46 47 48 49 50
000
ASUS41 KBGM 221210
RWRBGM
RWRBGM
BINGHAMTON REGIONAL WEATHER ROUNDUP
NATIONAL WEATHER SERVICE BINGHAMTON NY
800 AM EDT TUE JUL 22 2014

Note: "fair" indicates few or no clouds below 12,000 feet with no
significant weather and/or obstructions to visibility.

* = Station(s) that does not report precipitation, such as rain,
snow, etc, also no thunder or fog.

!NYZ009-015>018-022>025-036-037-044>046-055>057-062-221300
...CENTRAL NEW YORK...

CITY           SKY/WX    TMP DP  RH WIND       PRES   REMARKS
BINGHAMTON     MOSUNNY   68  65  90 SW6       30.20R
CORTLAND       FAIR      68  66  94 CALM      30.19S
DANSVILLE        N/A    N/A N/A N/A MISG      30.16S
ELMIRA         SUNNY     73  68  84 W5        30.16S
ITHACA         MOSUNNY   74  67  78 S5        30.19R
HAMILTON       CLOUDY    72  66  83 SE3       30.18S
MONTICELLO     PTSUNNY   64  64 100 CALM      30.23R
NORWICH        SUNNY     68  64  88 CALM      30.19S
ONEONTA        SUNNY     70  64  83 SW6       30.21S
PENN YAN       SUNNY     71  68  90 S6        30.16S
ROME           CLOUDY    70  65  84 E3        30.16S
SIDNEY         SUNNY     70  70 100 CALM      30.19S
SYRACUSE       MOSUNNY   73  67  81 CALM      30.14S
$$

!PAZ038>040-043-044-047-048-072-221300
...NORTHEAST PENNSYLVANIA...

CITY           SKY/WX    TMP DP  RH WIND       PRES   REMARKS
HAZLETON       PTSUNNY   70  66  88 MISG      30.26R
SCRANTON       SUNNY     71  63  75 CALM      30.20R
TOWANDA*       MOSUNNY   70  70 100 NE3       30.18F
$$
&&
KEY
WCI = WIND CHILL INDEX
VSB = VISIBILITY
HX  = HEAT INDEX
$$



USA.gov is the U.S. government's official web portal to all federal, state and local government web resources and services.